Dewpoint
43 43 42 42 45 48 47 42 36 47 49 36 35 34 31 36 37 39 38 35 33 31 31 32 31 28 28 33 35 34 34 33 28 27 31 32 30 28 28 25 22 25 21 18
43 42 40 42 45 48 45 39 42 48 45 33 34 36 35 36 39 39 38 36 36 36 32 31 31 31 32 36 34 33 35 33 24 23 31 32 33 31 29 28 28 23 19 18
43 41 41 42 45 47 47 41 36 42 43 42 34 32 33 33 38 39 39 37 37 36 35 33 32 32 33 34 35 38 37 34 27 23 27 33 31 30 32 32 26 23 22 22
43 41 42 44 46 49 48 43 37 38 34 37 34 34 34 34 33 38 38 37 36 35 35 34 35 34 33 35 37 37 37 31 33 33 31 33 34 32 31 31 28 24 21 22
43 40 43 45 46 49 45 39 39 37 37 37 32 34 31 31 34 37 37 35 36 38 36 32 31 33 33 32 35 36 38 33 34 31 34 34 32 34 32 32 30 28 26 26
43 41 43 44 46 48 42 43 44 42 37 35 32 31 33 34 36 37 39 38 37 37 38 38 38 38 37 37 35 35 36 33 32 27 33 34 29 32 33 33 33 30 27 27
42 42 42 43 45 46 45 44 43 40 35 34 32 32 34 36 37 37 40 40 39 41 44 43 43 41 40 38 37 37 36 33 33 29 32 25 35 37 34 32 30 33 31 30
42 42 42 42 43 45 45 45 43 42 36 36 34 34 33 34 37 39 39 40 41 45 43 38 37 35 34 35 37 37 38 36 32 29 31 33 29 35 33 32 31 32 34 33
42 42 42 42 42 44 45 45 47 44 40 36 35 35 37 38 38 40 41 43 45 45 41 38 33 26 28 27 30 35 38 37 34 33 29 26 25 37 36 37 30 34 33 34
42 42 41 42 42 43 45 45 46 43 41 41 38 36 38 41 40 38 39 40 39 43 39 35 34 30 30 27 28 31 34 34 32 31 30 29 32 35 39 30 30 32 36 35
42 41 41 42 41 42 44 43 46 41 41 43 43 43 40 39 39 38 40 40 41 40 36 36 36 32 32 29 28 31 30 30 29 30 28 21 33 36 33 32 32 33 36 39
41 41 41 41 41 41 44 41 44 44 41 43 46 45 44 43 43 42 43 40 41 42 40 38 39 36 33 30 27 32 31 31 30 31 28 31 33 33 34 34 33 33 36 36
39 39 39 39 40 41 43 43 43 40 43 43 42 41 45 46 46 46 42 42 43 43 46 43 38 36 35 30 31 30 33 36 35 33 32 33 34 34 34 34 34 35 34 33
38 38 39 39 39 40 42 42 44 41 37 40 37 44 41 45 47 46 46 46 47 47 46 42 40 36 35 33 33 33 35 36 34 33 34 34 34 34 34 34 34 33 33 32
39 39 38 39 39 40 41 42 43 43 37 39 40 42 43 46 46 46 47 46 45 44 42 41 40 39 36 34 33 33 36 35 34 33 35 34 33 34 34 34 33 33 31 30
39 38 37 39 39 39 40 37 44 45 44 41 38 44 44 47 47 46 45 46 46 45 43 41 44 42 38 33 33 37 36 35 36 36 34 34 34 34 34 33 33 32 32 31
39 38 39 40 40 40 37 37 43 44 44 41 37 36 45 46 46 46 46 47 46 45 42 41 43 43 44 40 36 37 38 38 35 34 34 33 34 33 33 33 32 32 30 29
39 40 41 40 41 41 39 43 44 45 41 43 36 36 38 46 42 42 46 44 45 45 43 43 42 41 41 38 39 37 35 34 34 34 34 34 34 33 32 32 31 30 29 28
41 40 41 44 41 38 39 42 42 45 43 39 38 34 30 44 43 42 44 44 40 44 41 41 40 39 36 38 38 36 35 34 34 33 33 33 33 32 31 30 30 29 29 28
38 37 35 35 37 41 41 44 41 40 42 43 39 36 36 39 40 40 40 40 38 34 39 40 37 38 39 39 39 37 36 34 32 31 29 30 31 32 30 29 29 28 28 28
36 32 33 38 41 40 40 36 37 39 36 41 39 35 37 40 37 38 37 35 34 33 33 36 34 33 36 35 37 38 35 33 33 33 32 33 32 31 29 28 29 29 28 27
37 37 39 39 35 33 31 32 35 35 30 38 39 38 36 37 38 35 37 32 34 31 30 33 31 32 31 32 35 36 33 32 32 31 32 32 31 29 28 27 27 27 25 24
36 34 27 29 31 28 28 28 32 33 35 36 36 35 36 35 34 31 30 33 32 29 30 29 28 30 30 31 33 33 32 32 30 29 29 29 28 28 26 25 25 24 22 21
29 27 18 26 27 28 31 30 31 34 34 36 37 35 34 33 28 30 33 33 32 28 26 22 25 27 28 30 31 32 31 29 28 27 27 28 27 26 26 25 25 22 21 20
27 27 14 24 31 31 32 32 32 35 36 36 35 34 32 26 29 29 31 29 26 27 25 24 24 22 26 30 31 30 28 27 26 27 27 27 26 25 25 24 24 22 21 20
30 26 19 28 22 17 29 31 32 36 38 35 35 33 31 27 30 28 28 26 25 26 26 24 21 26 29 30 29 28 27 26 26 26 27 26 26 25 24 24 23 22 20 18
26 27 31 29 26 25 27 28 31 37 35 34 33 31 30 26 23 24 25 25 29 31 24 20 25 22 26 28 27 27 27 26 26 26 26 26 25 24 22 20 19 18 17 16
Lifted_Index
6 5 4 3 2 1 1 1 1 2 2 2 2 2 2 2 3 3 4 5 5 6 5 5 5 5 5 6 6 6 6 5 4 4 4 3 3 2 2 1 1 1 1 1
6 5 4 3 3 2 2 1 1 2 2 2 2 2 2 2 2 3 4 4 5 5 5 5 4 5 5 6 6 6 6 5 4 3 3 3 2 2 2 1 1 1 1 1
6 5 5 4 3 2 2 1 1 1 2 2 3 2 2 2 2 2 3 4 5 5 4 4 4 5 5 5 6 6 6 5 4 3 2 2 2 2 2 1 1 1 1 1
6 6 5 5 4 3 2 1 1 2 2 2 3 3 2 2 2 2 3 3 4 4 4 4 4 5 5 5 5 5 5 4 3 3 3 3 3 3 2 2 2 2 1 1
7 7 6 6 5 4 2 2 2 3 2 2 2 2 2 2 2 2 2 3 3 3 4 4 4 5 5 5 5 5 5 4 3 3 3 3 2 3 3 3 2 2 2 2
7 7 7 7 6 5 4 3 3 3 2 2 2 2 2 2 2 2 2 2 3 3 4 4 4 5 5 5 5 5 5 4 3 2 2 2 1 2 3 3 3 3 3 3
9 9 9 8 7 6 6 4 3 3 2 2 1 1 1 2 2 2 2 3 3 3 3 4 4 4 5 5 5 5 5 4 3 2 2 1 1 2 2 3 3 4 4 4
10 10 9 9 8 7 7 5 4 3 2 2 1 1 1 2 2 2 2 3 3 3 3 3 3 4 5 5 5 5 5 4 3 2 1 1 2 2 2 2 3 3 4 4
10 10 10 10 9 8 7 6 5 3 2 2 2 1 1 1 2 2 2 2 3 3 3 2 2 3 4 5 5 5 5 4 3 2 1 1 2 2 2 2 2 2 3 3
11 11 10 10 10 9 8 7 6 4 2 2 2 1 1 1 1 1 2 2 3 3 2 2 2 3 4 5 5 4 4 4 3 2 1 1 2 2 2 2 1 1 2 2
11 11 11 10 10 10 9 8 7 5 3 2 2 1 1 1 1 2 2 2 3 2 2 2 2 3 4 5 4 4 4 4 3 3 2 2 2 2 2 2 2 1 1 1
12 12 11 11 11 10 9 8 7 5 3 2 2 2 1 1 1 2 2 2 2 2 2 2 3 3 4 4 4 4 4 4 4 3 3 3 2 2 2 2 2 1 1 0
12 12 12 12 12 11 10 9 8 6 3 2 2 2 2 2 2 2 2 2 2 3 3 3 3 3 3 3 3 3 3 3 3 3 3 3 3 3 3 2 2 1 1 0
12 12 12 12 12 12 11 10 9 6 4 2 2 2 2 2 2 2 2 2 2 3 3 3 3 3 2 2 2 3 3 3 3 3 3 3 3 3 2 2 2 1 1 1
12 12 12 12 12 12 11 10 9 7 5 3 2 2 2 2 2 1 2 2 3 3 3 4 3 2 2 2 2 2 2 3 3 2 2 2 2 2 2 2 2 2 2 2
12 12 11 11 11 11 10 9 8 8 6 4 2 2 2 2 2 2 2 2 3 3 4 4 3 2 2 2 1 2 2 2 2 2 2 2 2 2 2 2 2 3 3 3
12 11 11 11 11 11 10 9 8 8 6 4 3 2 2 2 2 2 2 2 3 3 4 4 3 2 2 2 1 2 2 2 2 2 2 2 2 2 2 2 3 3 4 4
12 11 10 10 9 10 10 9 8 7 5 4 3 2 2 2 2 2 2 2 2 3 3 3 3 2 2 1 1 2 2 2 2 2 2 2 2 2 2 3 3 3 4 4
12 10 9 8 8 9 9 8 7 6 4 3 3 2 2 2 2 2 2 2 2 3 3 3 3 2 2 2 2 2 2 2 2 2 2 2 2 2 2 2 3 3 4 4
12 10 9 8 8 7 7 6 5 4 3 3 3 2 2 2 2 2 2 3 3 3 3 3 3 2 2 2 2 2 2 2 2 2 2 2 2 1 1 2 3 4 4 4
12 10 9 8 7 6 4 3 3 3 3 3 2 2 2 2 2 2 2 3 3 3 3 3 3 2 2 2 2 2 2 3 3 3 3 2 2 2 2 2 4 4 5 5
11 10 8 7 5 3 2 2 2 2 3 2 2 2 2 2 2 2 2 3 3 3 3 3 3 3 3 2 2 2 2 3 3 3 3 3 3 2 3 3 4 5 6 6
9 8 6 5 3 2 2 2 2 2 3 2 2 1 2 2 2 2 2 3 3 3 3 3 3 3 3 3 2 2 3 3 3 3 3 3 3 3 3 4 5 6 6 7
7 6 5 3 2 2 2 2 3 3 3 2 2 1 1 2 2 2 3 3 3 3 3 3 4 4 4 4 3 3 3 3 3 3 3 3 3 3 4 5 6 6 7 7
7 6 4 4 3 3 3 4 3 3 3 2 2 1 1 2 2 2 3 3 3 3 3 3 4 5 5 4 4 4 3 3 3 3 3 3 3 3 4 6 7 7 8 9
8 7 5 5 4 4 4 4 4 3 3 2 2 1 1 2 2 2 2 2 2 2 3 3 4 5 5 4 4 4 4 3 3 3 3 3 3 4 5 6 7 9 10 11
8 7 6 6 5 5 5 5 4 4 3 2 2 1 1 2 2 2 2 2 2 2 2 3 4 4 4 4 4 4 4 3 3 3 3 4 4 5 5 6 8 10 12 13